Powrót do katalogu

BREEZE-M DEB

AktywnyHEO
NORAD 38649·DEBRIS·🇷🇺 Russia

Wystrzelony Mar 14, 2008 z Baikonur Cosmodrome

Loading…

Następne Przeloty (najbliższe 24 godziny)

TLE

ŚwieżeSource: Space-Track

Epoka: Sep 13, 2026, 05:52 UTC

1 38649U 08011CY  26256.24465461  .00017682  00000-0  46179-1 0  9995
2 38649  48.7540 127.6604 6359659  93.5567   0.5827  3.36608171188109

Śledź BREEZE-M DEB w czasie rzeczywistym z AllMySat

Download on the App Store